This is the latest recevied weather packets stored in our database for station/object KC5EZZ-2. If no packets are shown the sender has not sent any weather packets the latest 10 day(s).
| Time | Temp. | Humidity | Pressure | Rain* | Wind** | Luminosity | Snow |
|---|---|---|---|---|---|---|---|
| 1777666762 | 13.33° C | - | - | 0.51 mm | 6.71 m/s, 10° | - | - |
| 1777666462 | 13.33° C | - | - | 0.51 mm | 5.36 m/s, 4° | - | - |
| 1777665861 | 12.78° C | - | - | 0.51 mm | 5.81 m/s, 10° | - | - |
| 1777665561 | 13.33° C | - | - | 0.51 mm | 5.81 m/s, 37° | - | - |
| 1777665262 | 12.78° C | - | - | 0.51 mm | 5.81 m/s, 0° | - | - |
| 1777664959 | 12.22° C | - | - | 0.51 mm | 5.81 m/s, 15° | - | - |
| 1777664660 | 11.67° C | - | - | 0.51 mm | 6.71 m/s, 21° | - | - |
| 1777664360 | 11.67° C | - | - | 0.51 mm | 6.26 m/s, 23° | - | - |
| 1777664058 | 11.67° C | - | - | 0.51 mm | 6.71 m/s, 3° | - | - |
| 1777663758 | 11.67° C | - | - | 0.51 mm | 6.26 m/s, 14° | - | - |
| 1777663459 | 11.67° C | - | - | 0.51 mm | 5.81 m/s, 14° | - | - |
| 1777663156 | 11.67° C | - | - | 0.51 mm | 5.81 m/s, 356° | - | - |
| 1777662857 | 11.67° C | - | - | 0.51 mm | 5.36 m/s, 7° | - | - |
| 1777662558 | 11.67° C | - | - | 0.51 mm | 6.26 m/s, 343° | - | - |
| 1777662255 | 11.67° C | - | - | 0.51 mm | 5.36 m/s, 356° | - | - |
| 1777661956 | 11.67° C | - | - | 0.51 mm | 6.26 m/s, 352° | - | - |
| 1777661656 | 11.67° C | - | - | 0.51 mm | 6.71 m/s, 340° | - | - |
| 1777661354 | 12.22° C | - | - | 0.51 mm | 4.92 m/s, 318° | - | - |
| 1777661054 | 12.22° C | - | - | 0.51 mm | 4.92 m/s, 20° | - | - |
| 1777660755 | 12.22° C | - | - | 0.51 mm | 3.58 m/s, 7° | - | - |
| 1777660452 | 11.67° C | - | - | 0.51 mm | 3.58 m/s, 4° | - | - |
| 1777660153 | 11.67° C | - | - | 0.51 mm | 4.02 m/s, 8° | - | - |
| 1777659853 | 11.67° C | - | - | 0.51 mm | 4.92 m/s, 349° | - | - |
| 1777659551 | 11.67° C | - | - | 0.51 mm | 5.36 m/s, 339° | - | - |
| 1777659252 | 11.67° C | - | - | 0.51 mm | 5.36 m/s, 0° | - | - |
* Rain latest hour (hover to see other rain measurements)
** Current wind speed in m/s (hover to see current wind gust speed)